Regional Weather Roundup
Issued by NWS

Home | Current Version | Previous Version | Text Only | Print | Product List | Glossary Off
Versions: 1 2 3 4 5 6 7 8 9 10 11 12 13 14 15 16 17 18 19 20 21 22 23 24 25 26 27 28 29 30 31 32 33 34 35 36 37 38 39 40 41 42 43 44 45 46 47 48 49 50

000
ASUS43 KIND 310809
RWRIN

WEATHER ROUNDUP FOR INDIANA
NATIONAL WEATHER SERVICE INDIANAPOLIS IN
400 AM EDT THU JUL 31 2014

NOTE: "FAIR" INDICATES FEW OR NO CLOUDS BELOW 12,000 FEET WITH NO
SIGNIFICANT WEATHER AND/OR OBSTRUCTIONS TO VISIBILITY.

* - STATION DOES NOT REPORT WEATHER SUCH AS PRECIPITATION OR FOG.

+ - STATION NOT QUALITY CONTROLLED BY THE NATIONAL WEATHER SERVICE.
    USE DATA WITH CAUTION...ESPECIALLY DEWPOINT AND RELATIVE
    HUMIDITY OBSERVATIONS.

INZ001>003-010>013-019-020-310900-
NORTHWEST INDIANA

CITY           SKY/WX    TMP DP  RH WIND       PRES   REMARKS
GARY /AIRPORT/ FOG       57  55  95 CALM      30.04S VSB 1
KNOX *+          N/A     52  50  94 CALM      30.03S VSB<1/4
LA PORTE +     PTCLDY    52  52 100 CALM      30.04S FOG
MICHIGAN CITY+ CLEAR     54  54 100 CALM      30.04S FOG
MONTICELLO +   CLEAR     57  57  99 CALM      30.03F FOG
VALPARAISO     CLEAR     56  55  97 CALM      30.04F FOG

$$

LMZ046-743>745-310900-
SOUTHERN LAKE MICHIGAN

STATION/POSITION TIME  TEMP WIND        PRES
                       AIR  DIR/SP/G
                 (UTC) (F)  (DEG/KT/KT) (MB)
MICHIGAN CITY    0800   62  140/  5/  6   N/A

$$

INZ004-005-014>016-021>024-310900-
NORTH CENTRAL INDIANA

CITY           SKY/WX    TMP DP  RH WIND       PRES   REMARKS
GOSHEN         CLEAR     56  54  93 S3        30.03F FOG
LOGANSPORT +   PTCLDY    54  52  94 S3        30.05S FOG
PERU/GRISSOM   CLEAR     58  57  99 CALM      30.04S
ROCHESTER +    FOG       55  55 100 CALM      30.05S VSB 1/2
SOUTH BEND     CLEAR     56  53  90 S5        30.04S
WARSAW +       CLEAR     55  55 100 CALM      30.04S FOG

$$

INZ006>009-017-018-025>027-310900-
NORTHEAST INDIANA

CITY           SKY/WX    TMP DP  RH WIND       PRES   REMARKS
ANGOLA *+      CLOUDY    52  52 100 CALM      30.03F VSB 0
AUBURN +       CLEAR     57  54  88 CALM      30.04F
FORT WAYNE     PTCLDY    58  56  93 W3        30.04F
HUNTINGTON +   FOG       58  58  99 CALM      30.03F VSB 3/4

$$

INZ028-029-035-036-043>045-051>053-310900-
WEST CENTRAL INDIANA

CITY           SKY/WX    TMP DP  RH WIND       PRES   REMARKS
GREENCASTLE +  CLEAR     59  59 100 CALM      30.06F
LAFAYETTE      FOG       58  57  97 CALM      30.05R VSB 1/4
TERRE HAUTE    CLEAR     58  56  93 S3        30.06S

$$

INZ030>032-037>040-046>048-054>057-064-065-310900-
CENTRAL INDIANA

CITY           SKY/WX    TMP DP  RH WIND       PRES   REMARKS
CP ATTERBURY + CLEAR     59  57  94 CALM      30.07S FOG
INDIANAPOLIS   PTCLDY    61  60  97 W7        30.05S
-EAGLE CREEK   PTCLDY    62  59  90 CALM      30.05S
KOKOMO *+      CLEAR     55  54  94 CALM      30.05S
MARION +       CLEAR     54  53  97 S3        30.05S
MT COMFORT *+  CLEAR     61 N/A N/A SW3       30.06S
SHELBYVILLE    CLEAR     62  59  90 CALM      30.05F
ZIONSVILLE +   CLEAR     60  57  89 CALM      30.06S

$$

INZ033-034-041-042-049-050-058-059-310900-
EAST CENTRAL INDIANA

CITY           SKY/WX    TMP DP  RH WIND       PRES   REMARKS
MUNCIE         CLEAR     61  57  87 CALM      30.05S

$$

INZ060-061-067>069-081>083-085>088-310900-
SOUTHWEST INDIANA

CITY           SKY/WX    TMP DP  RH WIND       PRES   REMARKS
EVANSVILLE     CLEAR     64  60  87 CALM      30.08F
WASHINGTON +   CLEAR     64  61  91 CALM      30.06S

$$

INZ062-063-066-070>080-084-089>092-310900-
SOUTH CENTRAL AND SOUTHEAST INDIANA

CITY           SKY/WX    TMP DP  RH WIND       PRES   REMARKS
BEDFORD +      CLEAR     61  57  88 CALM      30.07
BLOOMINGTON    CLEAR     60  58  92 CALM      30.07S
NORTH VERNON + CLEAR     61  61 100 CALM      30.08

$$



USA.gov is the U.S. government's official web portal to all federal, state and local government web resources and services.